User: anonymous   Login
Location: Unspecified
(0.0000°N, 0.0000°E)
Time: 18:54:05
(UTC+00:00)
Language:

LAPAN-TUBSAT - Orbit

View from above orbital plane
View from above orbital plane
View from above satellite
View from above satellite

Ground track
Ground track

The orbit data is extracted from the following two-line orbital elements,

1 29709U 07001A   17145.84612785 +.00000078 +00000-0 +16202-4 0  9994
2 29709 097.7019 121.4889 0013035 159.4457 200.7289 14.82055748560678
Epoch (UTC): 25 May 2017 20:18:25
Eccentricity: 0.0013035
inclination: 97.7019°
perigee height: 614 km
apogee height: 632 km
right ascension of ascending node: 121.4889°
argument of perigee: 159.4457°
revolutions per day: 14.82055748
mean anomaly at epoch: 200.7289°
orbit number at epoch: 56067

The dashed part of the orbit path shows where the satellite is in the earth's shadow,  

DLR